Weather History for KMWM - April, 2014

Change the Weather History Date:

Saturday, April 5, 2014

  Actual Average Record
Temperature  
Mean Temperature 34 °F -  
Max Temperature 50 °F 50 °F - (-1)
Min Temperature 19 °F 28 °F - (-1)
Degree Days  
Heating Degree Days 30    
Moisture  
Dew Point 29 °F    
Average Humidity 79    
Maximum Humidity 100    
Minimum Humidity 61    
Precipitation  
Precipitation 0.00 in - - ()
Sea Level Pressure  
Sea Level Pressure 30.01 in    
Wind  
Wind Speed 6 mph (South)    
Max Wind Speed 20 mph    
Max Gust Speed 28 mph    
Visibility 9 miles    
Events      
Averages and records for this station are not official NWS values.
T = Trace of Precipitation, MM = Missing Value Source: NWS Daily Summary

Daily Weather History Graph

Daily Weather History Graph

Search for Another Location

Airport or City:

Trip Planner

Search our weather history database for the weather conditions in past years. The results will help you decide how hot, cold, wet, or windy it might be!

Date:

Astronomy

Apr. 05, 2014 Rise Set
Actual Time 6:54 AM CDT 7:52 PM CDT
Civil Twilight 6:25 AM CDT 8:21 PM CDT
Nautical Twilight 5:50 AM CDT 8:56 PM CDT
Astronomical Twilight 5:13 AM CDT 9:33 PM CDT
Moon 10:56 AM CDT (4/5) 1:09 AM CDT (4/5)
Length of Visible Light 13h 56m
Length of Day
12h 57m
Waxing Crescent, 34% of the Moon is Illuminated
Apr 5
Waxing Crescent
Apr 7
First Quarter
Apr 15
Full
Apr 22
Last Quarter
Apr 29
New

Hourly Weather History & Observations

Time (CDT) Temp. Windchill Dew Point Humidity Pressure Visibility Wind Dir Wind Speed Gust Speed Precip Events Conditions
12:13 AM 24.8 °F - 24.8 °F 100% 30.08 in 7.0 mi Calm Calm - N/A   Clear
12:32 AM 24.8 °F - 24.8 °F 100% 30.08 in 5.0 mi Calm Calm - N/A   Clear
12:53 AM 23.0 °F - 23.0 °F 100% 30.08 in 3.0 mi Calm Calm - N/A   Clear
1:13 AM 24.8 °F - 24.8 °F 100% 30.08 in 5.0 mi Calm Calm - N/A   Clear
1:32 AM 23.0 °F - 21.2 °F 93% 30.09 in 4.0 mi Calm Calm - N/A   Clear
1:53 AM 23.0 °F - 21.2 °F 93% 30.08 in 5.0 mi Calm Calm - N/A   Clear
2:13 AM 21.2 °F - 21.2 °F 100% 30.09 in 4.0 mi Calm Calm - N/A   Clear
2:32 AM 23.0 °F - 21.2 °F 93% 30.09 in 3.0 mi Calm Calm - N/A   Clear
2:52 AM 19.4 °F - 19.4 °F 100% 30.08 in 3.0 mi Calm Calm - N/A   Clear
3:13 AM 21.2 °F - 21.2 °F 100% 30.08 in 4.0 mi Calm Calm - N/A   Clear
3:32 AM 23.0 °F - 21.2 °F 93% 30.08 in 4.0 mi Calm Calm - N/A   Clear
3:52 AM 21.2 °F - 21.2 °F 100% 30.07 in 3.0 mi Calm Calm - N/A   Clear
4:13 AM 21.2 °F - 21.2 °F 100% 30.07 in 4.0 mi Calm Calm - N/A   Clear
4:32 AM 21.2 °F - 21.2 °F 100% 30.07 in 5.0 mi Calm Calm - N/A   Clear
4:52 AM 21.2 °F - 21.2 °F 100% 30.06 in 5.0 mi Calm Calm - N/A   Clear
5:13 AM 23.0 °F 18.4 °F 21.2 °F 93% 30.07 in 7.0 mi South 3.5 mph - N/A   Clear
5:32 AM 23.0 °F 18.4 °F 21.2 °F 93% 30.06 in 7.0 mi South 3.5 mph - N/A   Clear
5:52 AM 23.0 °F - 21.2 °F 93% 30.06 in 7.0 mi Calm Calm - N/A   Clear
6:13 AM 23.0 °F 18.4 °F 21.2 °F 93% 30.06 in 10.0 mi South 3.5 mph - N/A   Clear
6:32 AM 23.0 °F 18.4 °F 21.2 °F 93% 30.06 in 10.0 mi South 3.5 mph - N/A   Clear
6:52 AM 23.0 °F 18.4 °F 21.2 °F 93% 30.06 in 10.0 mi South 3.5 mph - N/A   Clear
7:13 AM 23.0 °F 18.4 °F 21.2 °F 93% 30.06 in 10.0 mi South 3.5 mph - N/A   Clear
7:32 AM 23.0 °F 18.4 °F 23.0 °F 100% 30.07 in 10.0 mi South 3.5 mph - N/A   Clear
7:52 AM 24.8 °F 17.9 °F 23.0 °F 93% 30.07 in 10.0 mi South 5.8 mph - N/A   Clear
8:13 AM 24.8 °F 17.9 °F 24.8 °F 100% 30.08 in 10.0 mi South 5.8 mph - N/A   Clear
8:32 AM 28.4 °F 20.4 °F 26.6 °F 93% 30.07 in 10.0 mi South 8.1 mph - N/A   Clear
8:52 AM 30.2 °F 21.3 °F 26.6 °F 86% 30.08 in 10.0 mi South 10.4 mph - N/A   Clear
9:13 AM 30.2 °F 20.8 °F 26.6 °F 86% 30.07 in 10.0 mi South 11.5 mph - N/A   Clear
9:32 AM 32.0 °F 23.0 °F 26.6 °F 80% 30.07 in 10.0 mi South 11.5 mph - N/A   Clear
9:52 AM 33.8 °F 24.8 °F 26.6 °F 75% 30.06 in 10.0 mi South 12.7 mph 17.3 mph N/A   Clear
10:12 AM 33.8 °F 24.8 °F 28.4 °F 81% 30.06 in 10.0 mi South 12.7 mph 21.9 mph N/A   Clear
10:32 AM 35.6 °F 25.9 °F 28.4 °F 75% 30.06 in 10.0 mi South 16.1 mph 21.9 mph N/A   Clear
10:53 AM 35.6 °F 25.9 °F 28.4 °F 75% 30.06 in 10.0 mi South 16.1 mph 20.7 mph N/A   Clear
11:12 AM 35.6 °F 25.9 °F 30.2 °F 81% 30.06 in 10.0 mi South 16.1 mph 21.9 mph N/A   Clear
11:32 AM 35.6 °F 25.2 °F 28.4 °F 75% 30.05 in 10.0 mi South 18.4 mph - N/A   Clear
11:52 AM 37.4 °F 29.3 °F 30.2 °F 75% 30.05 in 10.0 mi South 12.7 mph 18.4 mph N/A   Clear
12:12 PM 37.4 °F 28.9 °F 30.2 °F 75% 30.04 in 10.0 mi South 13.8 mph 21.9 mph N/A   Clear
12:33 PM 39.2 °F 31.6 °F 30.2 °F 70% 30.04 in 10.0 mi South 12.7 mph - N/A   Clear
12:53 PM 39.2 °F 30.8 °F 32.0 °F 75% 30.04 in 10.0 mi South 15.0 mph - N/A   Clear
1:12 PM 41.0 °F 33.9 °F 32.0 °F 70% 30.03 in 10.0 mi South 12.7 mph 19.6 mph N/A   Clear
1:33 PM 42.8 °F 35.8 °F 32.0 °F 66% 30.03 in 10.0 mi South 13.8 mph - N/A   Clear
1:53 PM 42.8 °F 35.4 °F 33.8 °F 70% 30.01 in 10.0 mi South 15.0 mph 20.7 mph N/A   Scattered Clouds
2:12 PM 42.8 °F 36.2 °F 33.8 °F 70% 30.01 in 10.0 mi South 12.7 mph 18.4 mph N/A   Clear
2:33 PM 42.8 °F 35.4 °F 33.8 °F 70% 30.00 in 10.0 mi South 15.0 mph 20.7 mph N/A   Clear
2:53 PM 44.6 °F 36.6 °F 33.8 °F 66% 29.99 in 10.0 mi South 19.6 mph 23.0 mph N/A   Scattered Clouds
3:12 PM 44.6 °F 38.1 °F 35.6 °F 71% 29.98 in 10.0 mi South 13.8 mph 25.3 mph N/A   Scattered Clouds
3:32 PM 46.4 °F 40.1 °F 35.6 °F 66% 29.97 in 10.0 mi SSE 15.0 mph 23.0 mph N/A   Clear
3:53 PM 46.4 °F 40.1 °F 35.6 °F 66% 29.96 in 10.0 mi SSE 15.0 mph 26.5 mph N/A   Clear
4:12 PM 46.4 °F 39.5 °F 35.6 °F 66% 29.95 in 10.0 mi South 17.3 mph 27.6 mph N/A   Clear
4:32 PM 48.2 °F - 35.6 °F 62% 29.95 in 10.0 mi SSE 16.1 mph 24.2 mph N/A   Clear
4:53 PM 48.2 °F - 35.6 °F 62% 29.94 in 10.0 mi SSE 15.0 mph 18.4 mph N/A   Clear
5:12 PM 48.2 °F - 37.4 °F 66% 29.94 in 10.0 mi SSE 15.0 mph 20.7 mph N/A   Clear
5:32 PM 50.0 °F - 37.4 °F 62% 29.93 in 10.0 mi SSE 17.3 mph 23.0 mph N/A   Clear
5:53 PM 50.0 °F - 37.4 °F 62% 29.93 in 10.0 mi SSE 11.5 mph 24.2 mph N/A   Clear
6:12 PM 50.0 °F - 37.4 °F 62% 29.93 in 10.0 mi SSE 13.8 mph 21.9 mph N/A   Clear
6:32 PM 50.0 °F - 37.4 °F 62% 29.93 in 10.0 mi SSE 10.4 mph 16.1 mph N/A   Clear
6:53 PM 48.2 °F - 37.4 °F 66% 29.93 in 10.0 mi South 12.7 mph 17.3 mph N/A   Clear
7:12 PM 48.2 °F - 37.4 °F 66% 29.93 in 10.0 mi South 11.5 mph 18.4 mph N/A   Clear
7:32 PM 46.4 °F 41.5 °F 35.6 °F 66% 29.92 in 10.0 mi South 10.4 mph - N/A   Clear
7:52 PM 46.4 °F 41.5 °F 35.6 °F 66% 29.92 in 10.0 mi SSE 10.4 mph 18.4 mph N/A   Clear
8:13 PM 44.6 °F 39.2 °F 35.6 °F 71% 29.91 in 10.0 mi SSE 10.4 mph - N/A   Clear
8:32 PM 44.6 °F 39.2 °F 33.8 °F 66% 29.91 in 10.0 mi SSE 10.4 mph - N/A   Clear
8:52 PM 44.6 °F 39.2 °F 35.6 °F 71% 29.92 in 10.0 mi SSE 10.4 mph - N/A   Clear
9:13 PM 44.6 °F 38.4 °F 33.8 °F 66% 29.91 in 10.0 mi SSE 12.7 mph - N/A   Clear
9:32 PM 44.6 °F 38.4 °F 33.8 °F 66% 29.91 in 10.0 mi SSE 12.7 mph - N/A   Clear
9:52 PM 44.6 °F 38.4 °F 33.8 °F 66% 29.91 in 10.0 mi SSE 12.7 mph - N/A   Clear
10:13 PM 42.8 °F 37.0 °F 33.8 °F 70% 29.91 in 10.0 mi SSE 10.4 mph 17.3 mph N/A   Clear
10:32 PM 42.8 °F 36.2 °F 32.0 °F 66% 29.91 in 10.0 mi SSE 12.7 mph 17.3 mph N/A   Clear
10:52 PM 42.8 °F 36.6 °F 30.2 °F 61% 29.91 in 10.0 mi SSE 11.5 mph 18.4 mph N/A   Clear
11:13 PM 42.8 °F 36.2 °F 30.2 °F 61% 29.91 in 10.0 mi SSE 12.7 mph 19.6 mph N/A   Clear
11:32 PM 42.8 °F 35.8 °F 30.2 °F 61% 29.90 in 10.0 mi South 13.8 mph 21.9 mph N/A   Clear
11:52 PM 42.8 °F 36.2 °F 30.2 °F 61% 29.90 in 10.0 mi South 12.7 mph - N/A   Clear